User: anonymous   Login
Location: Fontevrault
(47.1823°N, 0.0493°E)
Time: 14:55:15
(UTC+00:00)
Language:

Cosmos 1536 Rocket - Orbit

View from above orbital plane
View from above orbital plane
View from above satellite
View from above satellite

Ground track
Ground track

The orbit data is extracted from the following two-line orbital elements,

1 14700U 84013B   21265.10293903  .00000107  00000-0  10167-4 0  9998
2 14700  82.5371 141.2318 0018512 228.7829 292.5823 14.83343119 31939
Epoch (UTC): 22 September 2021 02:28:13
Eccentricity: 0.0018512
inclination: 82.5371°
perigee height: 606 km
apogee height: 632 km
right ascension of ascending node: 141.2318°
argument of perigee: 228.7829°
revolutions per day: 14.83343119
mean anomaly at epoch: 292.5823°
orbit number at epoch: 3193

The dashed part of the orbit path shows where the satellite is in the earth's shadow,  

DLR